{"data":{"norad_id":64108,"epoch":"2026-09-20T07:52:15.378528Z","epoch_age_seconds":155279,"freshness":"FRESH","line1":"1 64108U 25110N   26263.32795577  .00018031  00000+0  59098-3 0  9998","line2":"2 64108  53.1554 201.1893 0001453 100.6054 259.5111 15.31723705 75704","mean_motion":15.31723705,"eccentricity":0.0001453,"inclination_deg":53.1554,"raan_deg":201.1893,"arg_perigee_deg":100.6054,"mean_anomaly_deg":259.5111,"bstar":0.00059098,"rev_number":7570,"period_min":94.011733010295,"perigee_km":469.67420120533,"apogee_km":471.66446432563,"semimajor_km":6848.8063327655,"source":"CELESTRAK","updated_at":"2026-09-21T09:00:35.228956Z"}}